Find Starlink 32597

NORAD ID: 62304 Int'l Des: 2024-239 Owner: SPXS Country: US Constellation: starlink operational
LEOCIRCULAR

現在のビュー

3D地球を読み込み中...

About Starlink 32597

Starlink 32597 (NORAD 62304) is a starlink constellation satellite (v2 mini) launched Dec 13, 2024 by SPXS of US. It operates in LEO, CIRCULAR orbit with a mass of 730.00 kg.

Starlink 32597について

説明を読み込み中...

次回通過

Passes for default location (London). Set your location on the main map for personalized predictions.

高度履歴

Loading altitude history...

軌道要素

1 62304U 24239D 26174.94892077 .00036767 00000-0 10937-2 0 9992
2 62304 53.1599 47.5098 0001276 92.2299 267.8850 15.34407762 85830
Epoch: Jun 23, 2026 • Age: 7 hours

現在のステータス

高度 464.7 km
速度 7.64 km/s
衛星直下点 36.15°N, 163.23°W
打ち上げ日 Dec 13, 2024
運用期間 1.5 years
タイプ internet

技術仕様

分類 Payload
質量 730.00 kg
乾燥質量 700.00 kg
総質量 730.00 kg
長さ 0.30 m
直径 4.10 m
スパン 29.00 m
形状 Box + pan
製造者 SPXS
バスタイプ Starlink V2M
フェーズステータス In Orbit
所有者/国 SPXS/US

Most Searched